Regional Weather Roundup
Issued by NWS

Home | Current Version | Previous Version | Graphics & Text | Print | Product List | Glossary On
Versions: 1 2 3 4 5 6 7 8 9 10 11 12 13 14 15 16 17 18 19 20 21 22 23 24 25 26 27 28 29 30 31 32 33 34 35 36 37 38 39 40 41 42 43 44 45 46 47 48 49 50
000
ASUS43 KMKX 290059
RWRWI

WISCONSIN REGIONAL WEATHER ROUNDUP
NATIONAL WEATHER SERVICE MILWAUKEE/SULLIVAN WI
800 PM CDT SAT MAR 28 2015

NOTE: "FAIR" INDICATES FEW OR NO CLOUDS BELOW 12,000 FEET WITH NO
SIGNIFICANT WEATHER AND/OR OBSTRUCTIONS TO VISIBILITY.

WIZ001-002-006>008-014>016-023>028-290200-
NORTHWEST WISCONSIN

CITY           SKY/WX    TMP DP  RH WIND       PRES   REMARKS
SUPERIOR ARPT  PTCLDY    40  15  37 SW14      30.00F WCI  32
ASHLAND        PTCLDY    38  10  31 S13       30.02F WCI  30
HAYWARD        CLEAR     36  10  34 S10       30.05S WCI  28
SIREN          CLEAR     37  13  37 S12       30.05F WCI  29
CUMBERLAND     CLEAR     34  16  47 S9        30.06F WCI  26
RICE LAKE      CLEAR     36  11  36 S10       30.10S WCI  28
CHETEK         CLEAR     35  13  41 S10       30.10S WCI  27
LADYSMITH      CLEAR     36  10  33 S9        30.10S WCI  29
EAU CLAIRE     NOT AVBL
MENOMONIE      CLEAR     35  15  44 S9        30.11F WCI  28
NEW RICHMOND   CLEAR     35  19  52 S9        30.07F WCI  28
OSCEOLA        CLEAR     36  20  53 S12       30.08F WCI  28
$$

WIZ003>005-009-010-017-018-290200-
NORTH CENTRAL WISCONSIN

CITY           SKY/WX    TMP DP  RH WIND       PRES   REMARKS
MANITOWISH WTR PTCLDY    33  11  39 S7        30.04F WCI  27
ARBOR VITAE    MOCLDY    34  13  42 S7        30.06F WCI  28
WOODRUFF       MOCLDY    34  13  42 S7        30.06F WCI  28
RHINELANDER    PTCLDY    33  11  39 S7        30.08F WCI  27
EAGLE RIVER    MOCLDY    33   6  32 S6        30.06F WCI  27
LAND O LAKES   MOCLDY    34   8  33 S6        30.06F WCI  29
PHILLIPS       CLEAR     35  11  36 SW9       30.06F WCI  27
TOMAHAWK       CLEAR     32  11  41 CALM      30.09F
MEDFORD        CLEAR     33  16  49 SW8       30.10S WCI  26
MERRILL        CLEAR     35  10  36 S5        30.11S WCI  31
$$

WIZ029-030-035-036-043>047-290200-
CENTRAL WISCONSIN

CITY           SKY/WX    TMP DP  RH WIND       PRES   REMARKS
WAUSAU         CLEAR     34  12  40 S9        30.11S WCI  27
MOSINEE        NOT AVBL
MARSHFIELD     CLEAR     33  12  41 SW9       30.13S WCI  25
STEVENS POINT  CLEAR     32   9  37 S8        30.15F WCI  25
WAUPACA        CLEAR     35  11  37 S5        30.18S WCI  31
WAUTOMA        NOT AVBL
WISC RAPIDS    CLEAR     34  11  38 S10       30.17S WCI  26
CAMP DOUGLAS   NOT AVBL
$$

WIZ011>013-019>022-031-037>040-048>050-290200-
NORTHEAST WISCONSIN

CITY           SKY/WX    TMP DP  RH WIND       PRES   REMARKS
ANTIGO         CLEAR     30  14  50 SW7       30.11F WCI  23
SHAWANO        CLEAR     37  11  34 S5        30.16F WCI  33
OCONTO         CLEAR     33  15  47 S6        30.18S WCI  28
STURGEON BAY   CLEAR     28  21  74 S13       30.22S WCI  18
GREEN BAY      CLEAR     34  18  52 S8        30.19F WCI  27
MANITOWOC      NOT AVBL
APPLETON       PTCLDY    34  12  40 SW8       30.19F WCI  27
CLINTONVILLE   CLEAR     34  12  40 S8        30.16F WCI  27
OSHKOSH        CLEAR     32  15  49 SW8       30.20S WCI  25
$$

WIZ032>034-041-042-053>061-290200-
SOUTHWEST WISCONSIN

CITY           SKY/WX    TMP DP  RH WIND       PRES   REMARKS
LA CROSSE      CLEAR     37  15  40 S8        30.15F WCI  31
SPARTA         CLEAR     34  12  39 S5        30.18F WCI  30
VIROQUA        CLEAR     33  17  51 S6        30.16F WCI  28
BOSCOBEL       CLEAR     37  13  37 S7        30.20S WCI  32
PRAIRIE DU CHI CLEAR     38  11  32 S5        30.19S WCI  35
PLATTEVILLE    CLEAR     34  16  47 SE8       30.20F WCI  27
$$

WIZ056-057-062-063-064-067-068-290200-
SOUTH CENTRAL WISCONSIN

CITY           SKY/WX    TMP DP  RH WIND       PRES   REMARKS
REEDSBURG      CLEAR     32  15  48 S6        30.19F WCI  27
BARABOO/DELLS  CLEAR     31  12  45 S6        30.19F WCI  25
LONE ROCK      NOT AVBL
MINERAL POINT  CLEAR     34  14  44 S5        30.19F WCI  30
MADISON        PTCLDY    35  12  38 S8        30.22S WCI  29
MIDDLETON      CLEAR     35  13  40 S7        30.22F WCI  29
WATERTOWN      CLEAR     33  14  46 CALM      30.23S
MONROE         CLEAR     32  19  59 S7        30.22S WCI  26
JANESVILLE     CLEAR     34  12  40 S7        30.23S WCI  28
$$

WIZ051-052-058>065-066-070>072-290200-
SOUTHEAST WISCONSIN

CITY           SKY/WX    TMP DP  RH WIND       PRES   REMARKS
MILWAUKEE      CLEAR     28  13  53 S8        30.26S WCI  20
WAUKESHA       CLEAR     28  14  54 S10       30.25R WCI  19
MILWAUKEE/TIMM NOT AVBL
RACINE         CLEAR     28  14  55 S8        30.28F WCI  20
BURLINGTON     CLEAR     28  13  52 SE8       30.25S WCI  20
KENOSHA        CLEAR     27  13  55 SE10      30.27S WCI  17
FOND DU LAC    CLEAR     33  13  43 SW6       30.21S WCI  28
SHEBOYGAN      CLEAR     27  17  66 S13       30.24S WCI  16
WEST BEND      CLEAR     28  14  54 SE6       30.23S WCI  22
JUNEAU         CLEAR     31  14  49 SW6       30.23S WCI  25
$$

LSZ147-162-290200-
LAKE SUPERIOR

STATION/POSITION TIME  TEMP    WIND        PRES    WAVE
                       AIR SEA DIR/SP/G            HT/PER
                 (UTC) (F)     (DEG/KT/KT) (MB)    (FT/S)
DEVILS ISLAND    0000   33     130/  7/  8 1017.8F
PORT WING        0000   42     200/ 10/ 17 1016.6F
SAXON HARBOR     0040   41     200/  6/ 13 1016.9F
$$

LMZ867-665-643>646-290200-
LAKE MICHIGAN

STATION/POSITION TIME  TEMP    WIND        PRES    WAVE
                       AIR SEA DIR/SP/G            HT/PER
                 (UTC) (F)     (DEG/KT/KT) (MB)    (FT/S)
NORTHPORT PIER   0040   29     170/  8/ 14 1022.4F
KEWAUNEE LAKESHO 0000   31     200/ 12/ 14 1022.6F
SHEBOYGAN LAKESH 0000   30     180/ 19/ 20 1025.3F
PORT WASHINGTON  0000   31     170/ 14/ 17 1025.1F
MILWAUKEE LAKESH 0000   30     160/ 15/ 18   N/A
KENOSHA   LAKESH 0000   29     170/ 13/ 15 1025.4F
$$

TC  - TEMPERATURE IN CELSIUS
VSB - VISIBILITY IN STATUTE MILES
WCI - WIND CHILL INDEX
HX  - HEAT INDEX



USA.gov is the U.S. government's official web portal to all federal, state and local government web resources and services.